Weather History for West Cameron, TX

Change the Weather History Date:

Sunday, February 2, 2014

  Actual Average Record
Temperature  
Mean Temperature 64 °F -  
Max Temperature 66 °F - - ()
Min Temperature 62 °F - - ()
Degree Days  
Heating Degree Days 1    
Growing Degree Days 14 (Base 50)    
Moisture  
Dew Point -    
Average Humidity    
Maximum Humidity    
Minimum Humidity    
Precipitation  
Precipitation 0.00 in - - ()
Sea Level Pressure  
Sea Level Pressure 29.94 in    
Wind  
Wind Speed 13 mph (ESE)    
Max Wind Speed 16 mph    
Max Gust Speed -    
Visibility 2 miles    
Events Fog    
T = Trace of Precipitation, MM = Missing Value Source: NWS Daily Summary

Daily Weather History Graph

Daily Weather History Graph

Search for Another Location

Airport:

Trip Planner

Search our weather history database for the weather conditions in past years. The results will help you decide how hot, cold, wet, or windy it might be!

Date:

Astronomy

Feb. 02, 2014 Rise Set
Actual Time 7:01 AM CST 5:53 PM CST
Civil Twilight 6:36 AM CST 6:17 PM CST
Nautical Twilight 6:08 AM CST 6:46 PM CST
Astronomical Twilight 5:40 AM CST 7:14 PM CST
Moon 8:47 AM CST (2/2) 9:15 PM CST (2/2)
Length of Visible Light 11h 41m
Length of Day
10h 51m
Waxing Crescent, 11% of the Moon is Illuminated
Feb 2
Waxing Crescent
Feb 6
First Quarter
Feb 14
Full
Feb 22
Last Quarter
Mar 1
New

Hourly Weather History & Observations

Time (CST) Temp. Dew Point Humidity Pressure Visibility Wind Dir Wind Speed Gust Speed Precip Events Conditions
12:15 AM 64.4 °F - N/A% 29.95 in 2.5 mi ESE 12.7 mph - N/A   Overcast
12:35 AM 64.4 °F - N/A% 29.95 in 3.0 mi ESE 12.7 mph - N/A   Overcast
12:55 AM 64.4 °F - N/A% 29.95 in 3.0 mi ESE 13.8 mph - N/A   Overcast
1:15 AM 64.4 °F - N/A% 29.95 in 2.0 mi ESE 12.7 mph - N/A   Overcast
1:35 AM 64.4 °F - N/A% 29.94 in 2.0 mi ESE 13.8 mph - N/A   Overcast
1:55 AM 64.4 °F - N/A% 29.94 in 2.0 mi ESE 15.0 mph - N/A   Overcast
2:15 AM 64.4 °F - N/A% 29.94 in 1.5 mi ESE 15.0 mph - N/A   Overcast
2:35 AM 64.4 °F - N/A% 29.93 in 1.2 mi ESE 16.1 mph - N/A   Overcast
2:55 AM 64.4 °F - N/A% 29.92 in 1.2 mi ESE 15.0 mph - N/A   Overcast
3:15 AM 64.4 °F - N/A% 29.92 in 1.2 mi ESE 15.0 mph - N/A   Overcast
3:35 AM 64.4 °F - N/A% 29.93 in 1.5 mi ESE 13.8 mph - N/A   Overcast
3:55 AM 64.4 °F - N/A% 29.93 in 2.0 mi ESE 12.7 mph - N/A   Overcast
4:15 AM 64.4 °F - N/A% 29.93 in 1.8 mi ESE 10.4 mph - N/A   Overcast
4:35 AM 64.4 °F - N/A% 29.93 in 1.8 mi East 10.4 mph - N/A   Overcast
4:55 AM 64.4 °F - N/A% 29.92 in 2.0 mi East 10.4 mph - N/A   Overcast
5:15 AM 64.4 °F - N/A% 29.92 in 1.5 mi East 11.5 mph - N/A   Overcast
5:35 AM 62.6 °F - N/A% 29.93 in 1.0 mi East 12.7 mph - N/A   Overcast
5:50 AM 62.6 °F - N/A% 29.94 in 1.2 mi East 10.4 mph - N/A   Overcast
6:15 AM 62.6 °F - N/A% 29.94 in 1.8 mi East 11.5 mph - N/A   Overcast
6:35 AM 62.6 °F - N/A% 29.95 in 1.2 mi East 12.7 mph - N/A   Overcast
6:55 AM 62.6 °F - N/A% 29.94 in 2.0 mi East 13.8 mph - N/A   Mostly Cloudy
7:15 AM 64.4 °F - N/A% 29.94 in 1.5 mi ESE 13.8 mph - N/A   Overcast
7:35 AM 64.4 °F - N/A% 29.93 in 0.5 mi ESE 12.7 mph - N/A   Overcast
7:55 AM 64.4 °F - N/A% 29.93 in 0.5 mi ESE 15.0 mph - N/A Fog Fog
8:15 AM 64.4 °F - N/A% 29.94 in 0.5 mi ESE 13.8 mph - N/A   Overcast
8:35 AM 64.4 °F - N/A% 29.94 in 0.5 mi SE 15.0 mph - N/A   Overcast
8:55 AM 66.2 °F - N/A% 29.94 in 1.0 mi SE 13.8 mph - N/A   Mostly Cloudy
9:15 AM 66.2 °F - N/A% 29.94 in 0.5 mi SE 13.8 mph - N/A Fog Fog
9:30 AM 66.2 °F - N/A% 29.94 in 0.5 mi SE 15.0 mph - N/A   Overcast
9:55 AM 66.2 °F - N/A% 29.94 in 2.0 mi SE 12.7 mph - N/A   Partly Cloudy
10:15 AM 66.2 °F - N/A% 29.95 in 1.0 mi SE 12.7 mph - N/A   Mostly Cloudy
10:30 AM 66.2 °F - N/A% 29.95 in 0.5 mi SE 12.7 mph - N/A   Overcast